Ponca City, OK

8:05 AM CDT on May 24, 2017 (GMT -0500)
Ponca City Municipal

Weather History for KPNC - March, 2012

Change the Weather History Date:

Tuesday, March 6, 2012

  Actual Average Record
Temperature  
Mean Temperature 64 °F -  
Max Temperature 70 °F 62 °F 84 °F (1956)
Min Temperature 57 °F 35 °F 13 °F (1960)
Degree Days  
Heating Degree Days 2    
Growing Degree Days 14 (Base 50)    
Moisture  
Dew Point 42 °F    
Average Humidity 47    
Maximum Humidity 60    
Minimum Humidity 32    
Precipitation  
Precipitation 0.00 in - - ()
Sea Level Pressure  
Sea Level Pressure 29.86 in    
Wind  
Wind Speed 15 mph (South)    
Max Wind Speed 22 mph    
Max Gust Speed 33 mph    
Visibility 10 miles    
Events      
Averages and records for this station are not official NWS values.
T = Trace of Precipitation, MM = Missing Value Source: NWS Daily Summary

Daily Weather History Graph

Daily Weather History Graph

Search for Another Location

Airport or City:

Trip Planner

Search our weather history database for the weather conditions in past years. The results will help you decide how hot, cold, wet, or windy it might be!

Date:

Astronomy

Mar. 06, 2012 Rise Set
Actual Time 6:51 AM CST 6:28 PM CST
Civil Twilight 6:25 AM CST 6:53 PM CST
Nautical Twilight 5:55 AM CST 7:23 PM CST
Astronomical Twilight 5:25 AM CST 7:53 PM CST
Moon 4:57 PM CST (3/6) 5:25 AM CST (3/6)
Length of Visible Light 12h 28m
Length of Day
11h 36m
Waxing Gibbous, 96% of the Moon is Illuminated
Mar 6
Waxing Gibbous
Mar 8
Full
Mar 14
Last Quarter
Mar 22
New
Mar 30
First Quarter

Hourly Weather History & Observations

Time (CST) Temp. Dew Point Humidity Pressure Visibility Wind Dir Wind Speed Gust Speed Precip Events Conditions
12:53 AM 60.1 °F 32.0 °F 35% 29.97 in 10.0 mi South 12.7 mph 21.9 mph N/A   Clear
1:53 AM 60.8 °F 33.8 °F 36% 29.97 in 10.0 mi South 11.5 mph 21.9 mph N/A   Clear
2:53 AM 61.0 °F 35.1 °F 38% 29.93 in 10.0 mi South 15.0 mph 26.5 mph N/A   Clear
3:53 AM 61.0 °F 36.0 °F 39% 29.91 in 10.0 mi South 16.1 mph 24.2 mph N/A   Clear
4:53 AM 59.0 °F 36.0 °F 42% 29.91 in 10.0 mi South 12.7 mph 21.9 mph N/A   Clear
5:53 AM 59.0 °F 33.1 °F 38% 29.90 in 10.0 mi South 11.5 mph 24.2 mph N/A   Clear
6:53 AM 57.9 °F 28.0 °F 32% 29.90 in 10.0 mi South 11.5 mph 18.4 mph N/A   Clear
7:53 AM 57.9 °F 28.0 °F 32% 29.89 in 10.0 mi South 12.7 mph 23.0 mph N/A   Clear
8:53 AM 60.1 °F 36.0 °F 41% 29.90 in 10.0 mi South 17.3 mph 28.8 mph N/A   Clear
9:53 AM 63.0 °F 43.0 °F 48% 29.90 in 10.0 mi South 20.7 mph 32.2 mph N/A   Clear
10:53 AM 64.0 °F 46.9 °F 54% 29.90 in 10.0 mi South 21.9 mph 33.4 mph N/A   Clear
11:53 AM 66.9 °F 48.0 °F 51% 29.87 in 9.0 mi South 17.3 mph 31.1 mph N/A   Scattered Clouds
12:53 PM 68.0 °F 48.9 °F 50% 29.85 in 8.0 mi South 15.0 mph 29.9 mph N/A   Mostly Cloudy
1:53 PM 68.0 °F 48.0 °F 49% 29.82 in 10.0 mi South 19.6 mph 31.1 mph N/A   Mostly Cloudy
3:53 PM 70.0 °F 48.0 °F 46% 29.78 in 10.0 mi South 19.6 mph 32.2 mph N/A   Mostly Cloudy
4:53 PM 66.9 °F 48.0 °F 51% 29.78 in 10.0 mi South 19.6 mph 29.9 mph N/A   Partly Cloudy
5:53 PM 66.9 °F 48.0 °F 51% 29.77 in 10.0 mi South 15.0 mph 32.2 mph N/A   Partly Cloudy
6:53 PM 66.0 °F 48.9 °F 54% 29.77 in 10.0 mi South 15.0 mph 24.2 mph N/A   Clear
7:53 PM 64.9 °F 48.0 °F 54% 29.78 in 10.0 mi South 16.1 mph 25.3 mph N/A   Clear
8:53 PM 64.9 °F 48.9 °F 56% 29.79 in 10.0 mi South 15.0 mph 28.8 mph N/A   Clear
9:53 PM 64.0 °F 48.0 °F 56% 29.80 in 10.0 mi South 16.1 mph 27.6 mph N/A   Clear
10:53 PM 63.0 °F 48.0 °F 58% 29.80 in 10.0 mi South 16.1 mph 27.6 mph N/A   Clear
11:53 PM 62.1 °F 48.0 °F 60% 29.80 in 10.0 mi South 11.5 mph 25.3 mph N/A   Clear